Погода в Берёзовке

Россия / Республика Татарстан     55°54′04″N   49°15′09″E
темп.,
°C
ветер,
м/с
пор.,
м/с
влажн.,
%
обл.,
%
осадки,
мм/ч
давл.,
гПа
погр.,
м
18 мая, вт
вт1800:00+17ссз3684100 2.9 101892
03:00+16св498638 2.9 1017146
06:00+18в4107671 0.0 1017267
09:00+25в34528 0.0 1017567
12:00+27в444699 0.0 10181170
15:00+27в454549 0.0 10171251
18:00+24всв485879 0.0 1017255
21:00+19в5126467 0.0 1018236
19 мая, ср
ср1900:00+17в5136312 0.0 1018273
03:00+15в412755 0.0 1018254
06:00+17вюв511755 0.0 1019354
09:00+21вюв68575 0.0 1019774
12:00+23вюв78485 0.0 10191243
15:00+24вюв78455 0.0 10181450
18:00+22вюв59605 0.0 1018360
21:00+18вюв614670 0.0 1018311
20 мая, чт
чт2000:00+16вюв411685 0.0 1018209
03:00+15вюв411772 0.0 1018208
06:00+17юв5127035 0.0 1018403
09:00+21юв7105499 0.0 1018756
12:00+24юв79455 0.0 10171622
15:00+24юв794438 0.0 10161811
18:00+21юв510543 0.0 1015441
21:00+16вюв411631 0.0 1015202
21 мая, пт
пт2100:00+14вюв411690 0.0 1015191
03:00+13вюв310710 0.0 1014165
06:00+15юв41068100 0.0 1014290
09:00+20юв57510 0.0 1013721
12:00+22ююв5548100 0.0 10121528
15:00+21ююв5657100 0.1 10121272
18:00+18ю467499 1.8 1012335
21:00+15юз378677 1.9 1013156
22 мая, сб
сб2200:00+14зюз511900 0.0 1014328
03:00+12зюз410915 0.0 1016291
06:00+13зюз6108499 0.0 1017464
09:00+17зюз567170 0.0 1018775
12:00+20з565795 0.1 10191508
15:00+19з5661100 0.1 10201245
18:00+18з356725 0.0 1020541
21:00+14зсз117992 0.0 102114